Dewpoint
54 55 55 55 55 55 54 55 55 55 55 55 54 55 55 55 55 55 56 56 56 57 58 60 58 58 53 31 17 59 70 69 46 31 22 31 38 36 31 26 24 23 26 32 26 17 29
53 54 54 54 54 54 54 54 54 54 54 54 54 54 54 54 55 56 56 56 56 56 59 58 58 59 49 36 51 60 52 35 32 26 25 36 39 37 32 25 23 25 31 32 20 20 27
53 53 54 53 54 54 53 53 54 54 54 54 54 54 54 54 54 54 55 55 55 56 58 58 59 56 48 30 51 47 35 30 30 26 25 33 39 34 30 26 25 33 28 23 20 20 25
52 52 52 53 53 53 52 53 53 53 53 53 54 54 54 54 54 54 54 54 56 56 58 59 59 53 29 45 45 37 32 27 28 31 30 34 38 34 27 28 29 26 22 16 19 20 23
52 52 52 52 52 52 52 52 52 52 53 54 54 54 54 54 54 54 54 54 56 58 59 59 53 50 38 52 38 38 29 26 28 27 27 27 29 28 28 27 24 22 19 22 19 21 26
51 51 51 51 52 52 51 52 52 52 53 54 54 53 53 53 54 54 53 56 60 59 58 56 53 43 43 38 41 36 36 33 32 32 33 30 25 22 23 25 18 20 20 18 20 18 28
51 50 50 51 51 51 51 51 52 52 53 53 53 53 53 53 53 53 51 51 33 34 50 20 19 33 36 38 35 34 34 34 33 29 27 28 24 22 22 24 24 25 23 21 20 22 31
49 50 51 51 51 51 52 52 53 53 52 52 52 52 52 52 52 52 49 38 34 34 31 34 38 36 38 37 29 30 30 26 29 25 27 24 24 26 27 25 25 25 22 22 23 23 26
50 50 51 51 52 53 53 52 52 52 52 52 52 52 52 52 51 48 34 36 37 34 31 29 36 35 32 34 29 25 29 27 26 25 22 20 19 24 25 24 21 20 19 21 20 24 26
49 51 52 52 52 52 52 52 52 52 52 51 51 51 51 51 33 37 34 41 31 35 27 25 29 27 28 30 26 24 28 26 28 24 24 22 24 23 22 22 19 33 20 20 20 18 19
48 50 51 52 52 52 52 52 52 52 51 51 51 51 51 50 42 30 33 32 32 31 18 27 27 27 25 22 22 22 28 25 24 23 19 17 20 22 21 21 20 19 22 23 22 18 18
50 51 51 52 52 52 52 52 52 52 51 51 51 50 50 46 44 42 37 32 34 25 21 27 23 22 22 22 20 22 25 24 25 23 21 19 21 20 21 23 24 23 22 25 27 22 19
50 50 51 52 52 52 52 52 52 52 51 51 50 49 49 45 15 33 35 35 28 24 25 24 17 19 21 20 21 19 22 20 17 14 15 17 19 20 22 20 24 22 22 20 18 22 21
48 50 51 52 52 52 52 52 51 51 51 50 49 49 47 46 43 37 35 33 30 24 26 24 15 18 19 18 19 19 17 20 19 16 17 15 15 20 22 18 20 23 20 21 21 18 19
51 49 52 52 52 52 52 51 51 51 50 49 48 41 40 43 46 39 34 29 26 29 29 19 16 16 16 16 17 17 16 16 18 16 13 15 17 24 25 24 23 25 22 23 22 22 20
51 51 51 52 52 52 52 52 51 51 50 49 42 40 35 42 43 34 29 29 29 31 24 21 18 17 16 14 13 15 16 17 16 17 17 17 24 28 24 25 26 22 24 21 22 20 21
51 51 51 52 52 52 52 52 52 51 50 48 32 18 29 42 37 31 23 22 26 28 24 21 23 21 18 20 14 14 14 18 18 18 19 22 24 21 25 23 22 23 24 25 23 21 19
50 51 51 52 52 51 52 52 51 51 49 44 29 5 31 34 30 29 27 27 31 23 21 19 22 21 19 19 22 21 20 21 28 21 17 26 21 23 22 26 28 28 24 25 25 23 25
50 50 51 51 52 52 52 52 51 50 49 42 31 28 38 30 25 25 27 23 24 22 18 20 21 22 21 17 16 21 27 29 30 24 23 25 22 21 22 23 25 27 30 28 28 27 27
49 50 50 51 52 52 52 52 51 50 49 42 36 36 38 36 34 29 31 26 23 27 18 24 24 26 26 24 24 22 27 29 31 37 52 39 25 21 18 23 24 24 26 31 28 27 27
49 49 49 51 51 51 52 52 52 51 49 40 41 40 38 34 34 35 33 30 32 26 27 25 22 25 22 24 27 29 32 30 30 43 30 26 25 34 27 27 23 23 24 25 23 24 24
49 49 49 49 50 51 51 52 52 51 47 42 39 38 38 34 36 32 32 29 29 29 28 24 27 34 25 23 23 28 29 36 29 29 26 27 26 30 25 31 27 26 28 27 27 26 28
48 49 49 49 49 50 50 51 52 50 45 36 37 38 37 35 33 31 32 31 31 32 31 34 35 33 33 34 34 37 36 32 38 30 27 28 27 25 26 32 30 26 29 29 29 27 26
49 49 49 49 49 50 50 50 51 51 45 40 38 38 36 29 34 34 34 34 31 33 32 32 34 32 35 35 34 31 31 31 30 31 32 32 30 28 27 31 24 27 33 31 29 33 32
49 49 49 49 49 49 50 50 51 51 50 42 41 38 38 32 36 33 34 33 33 33 35 35 34 35 36 33 30 28 29 33 28 28 31 33 32 31 29 28 28 32 35 31 32 31 40
49 49 49 49 49 50 50 50 50 51 50 43 41 40 39 36 23 36 35 35 33 32 32 37 37 36 33 32 30 28 27 27 26 27 29 31 30 29 30 26 25 31 36 37 40 31 40
50 50 49 49 50 50 50 49 50 50 50 44 42 41 40 38 38 37 34 34 37 36 33 35 34 36 36 29 29 28 26 30 26 24 24 26 29 26 31 27 29 34 40 41 31 31 37
50 51 50 50 49 49 49 49 49 50 50 44 40 42 39 38 38 40 38 37 34 36 33 34 35 35 37 32 29 28 27 29 25 27 26 23 25 28 31 27 25 41 43 38 39 46 44
49 49 49 49 49 49 49 49 49 50 50 43 36 39 40 38 36 40 40 40 38 36 33 34 34 34 36 35 35 37 36 35 31 28 33 28 29 29 32 32 39 42 42 45 47 47 47
Lifted_Index
10 10 11 11 12 13 14 14 15 16 16 16 16 16 16 16 16 16 15 14 14 14 14 14 14 13 11 9 7 6 6 7 9 9 8 7 6 5 5 4 4 3 3 4 4 3 3
11 11 11 12 12 13 14 15 15 16 16 16 16 16 16 17 16 16 15 14 14 14 14 14 14 13 10 8 7 7 8 9 9 8 8 7 6 6 5 4 4 3 3 3 3 3 3
12 12 12 13 13 14 14 15 16 16 17 17 17 17 17 17 17 16 15 14 13 14 14 14 14 12 10 8 8 8 10 10 9 9 8 7 6 6 5 4 3 3 3 3 3 3 3
13 13 13 13 14 14 15 15 16 17 17 17 17 17 17 17 17 16 14 13 13 13 14 13 13 11 9 8 8 9 10 9 9 9 8 7 6 6 5 4 3 2 2 2 2 2 2
13 14 14 14 14 15 15 16 16 17 17 17 17 17 17 17 16 15 14 12 12 13 13 13 12 10 8 8 8 9 9 8 8 8 8 7 6 5 4 3 2 2 1 1 1 2 2
14 14 14 15 15 15 15 16 16 17 17 17 17 17 17 16 16 15 13 11 11 11 12 11 10 9 8 8 8 8 8 8 8 7 7 6 5 4 3 2 1 1 1 1 1 1 1
15 15 15 15 15 15 16 16 16 17 17 17 17 16 16 16 16 14 12 11 11 10 10 9 9 9 8 8 8 8 8 8 7 6 6 5 4 3 3 2 1 1 1 1 1 1 1
15 15 15 15 15 15 16 16 16 17 17 17 17 16 16 16 15 14 12 11 10 10 9 9 9 9 9 9 9 8 8 8 7 6 5 5 4 3 3 2 1 1 1 1 1 1 1
15 15 15 15 15 15 15 16 16 17 17 17 17 17 16 15 14 13 11 10 10 9 8 8 8 8 9 9 8 8 8 8 6 5 5 4 4 3 3 2 2 1 1 1 1 1 1
15 15 15 15 15 15 15 16 16 17 17 17 17 17 16 15 13 11 10 10 10 9 7 6 7 8 8 8 8 8 8 8 6 5 5 4 4 3 2 2 2 2 1 1 1 1 1
16 15 15 15 15 15 16 16 16 17 17 17 17 17 16 15 13 11 10 10 10 8 5 5 7 8 8 8 8 8 8 8 7 6 5 4 4 3 2 2 2 2 2 2 1 1 1
15 15 15 15 15 16 16 16 16 17 17 17 17 17 16 15 13 12 11 10 8 6 5 5 6 7 7 7 7 7 7 7 6 5 5 4 4 3 2 2 2 2 2 2 2 1 1
15 15 15 15 15 16 16 16 17 17 17 17 16 16 15 14 13 13 11 9 7 5 5 6 6 6 6 6 7 7 7 6 6 5 4 4 4 3 3 2 2 2 2 2 1 1 1
15 15 15 15 15 15 16 16 17 17 17 16 15 14 14 13 13 12 11 8 6 5 6 6 6 6 6 6 6 6 6 6 5 4 4 3 3 3 3 2 2 2 2 2 1 1 1
15 15 15 15 15 15 16 16 16 17 17 16 15 13 12 12 12 12 10 7 6 6 6 6 6 6 6 6 6 6 6 5 5 4 4 3 3 3 3 3 2 2 2 2 2 1 1
15 15 15 15 15 15 15 16 16 16 17 16 13 11 11 11 12 11 8 7 6 6 6 5 5 5 5 5 6 6 5 5 4 4 4 4 3 3 2 2 3 3 3 3 3 2 1
15 15 15 15 15 15 15 15 15 16 16 15 12 10 10 11 11 9 7 6 6 7 6 5 5 4 4 5 5 5 5 4 4 4 4 4 3 3 3 3 3 3 3 3 3 2 2
15 15 15 15 15 15 15 15 15 16 16 14 11 9 9 9 8 7 6 6 6 7 6 6 5 5 4 5 5 5 4 4 3 3 3 3 3 3 3 3 3 3 3 3 3 3 3
15 15 15 14 14 14 14 14 15 15 15 13 10 9 8 8 7 6 6 6 6 7 6 6 6 5 5 5 5 4 4 4 3 3 2 2 2 2 3 3 3 3 3 3 3 3 3
14 14 14 14 14 14 14 14 14 15 15 13 10 8 7 7 7 7 6 6 6 6 6 6 6 5 5 4 4 4 4 4 3 3 2 2 2 2 2 2 2 3 3 3 3 2 2
13 13 13 13 14 14 13 13 14 14 14 12 9 8 7 7 7 7 6 6 6 6 6 6 6 5 4 4 4 4 4 4 3 3 2 2 2 2 2 2 2 2 3 3 3 3 2
12 12 12 13 13 13 13 13 13 14 14 12 10 9 8 7 6 6 6 6 6 6 6 6 6 5 5 4 4 4 4 4 3 3 2 2 2 2 2 2 2 2 2 3 3 3 3
11 11 11 12 12 12 12 12 12 13 14 13 11 10 8 7 6 6 6 6 6 6 5 5 5 5 5 5 5 4 4 4 3 3 3 3 2 2 2 2 2 2 3 3 3 3 4
10 10 10 11 11 11 11 11 11 12 13 13 12 11 9 7 6 6 5 5 5 5 5 5 5 5 5 5 5 5 5 4 4 4 4 3 3 3 3 3 2 3 3 4 4 4 4
9 9 9 10 10 10 10 10 11 11 12 13 12 11 9 8 8 7 6 5 5 5 5 5 5 5 5 5 4 4 4 4 4 4 4 4 4 4 3 3 3 4 4 4 4 4 4
8 8 9 9 9 9 9 10 10 10 11 11 11 10 9 9 9 8 7 6 5 5 5 5 5 5 5 4 4 4 4 4 4 4 4 4 4 4 3 3 3 4 5 5 5 4 4
7 7 8 8 8 8 9 9 9 9 10 11 10 10 9 9 9 9 9 8 7 6 5 5 5 5 5 5 4 4 4 4 4 4 4 3 3 3 4 4 4 5 5 5 5 4 4
6 6 7 7 7 8 8 8 9 9 9 10 10 10 10 10 9 9 9 9 8 7 6 5 5 5 5 5 5 4 4 4 4 4 4 4 4 4 4 4 5 5 4 4 4 3 3
6 6 6 7 7 7 8 8 8 8 9 10 10 10 10 10 10 9 9 10 9 8 6 5 5 5 5 5 5 5 4 4 4 4 4 4 4 4 4 5 5 4 4 3 3 3 2